Погода в Красном Куте

Украина / Луганская область     48°12′09″N   38°47′24″E
темп.,
°C
ветер,
м/с
пор.,
м/с
влажн.,
%
обл.,
%
осадки,
мм/ч
давл.,
гПа
погр.,
м
21 января, пт
пт2123:00−8ю5129048 0.0 1017240
02:00−7ююв5149282 0.0 1015324
05:00−5ююв71798100 0.3 1011466
08:00−2ююв71598100 0.9 1009572
11:000юз7139092 0.1 1009706
14:000юз61389100 0.1 1010772
17:00−2зюз41093100 0.2 1011480
20:00−4юз2797100 0.2 1011189
22 января, сб
сб2223:00−5юз3796100 0.0 1012177
02:00−5ююз3794100 0.0 1012184
05:00−6ююз389496 0.0 1012162
08:00−8ююз38935 0.0 1014128
11:00−4юз58875 0.0 1014453
14:00−3юз488657 0.0 1014521
17:00−8ю2291100 0.0 101620
20:00−8ююз1190100 0.0 101710
23 января, вс
вс2323:00−7с1189100 0.0 101710
02:00−8всв2293100 0.0 101817
05:00−7св2293100 0.0 101728
08:00−5ссв3793100 0.0 1018169
11:00−4ссв5892100 0.0 1018379
14:00−4ссв71293100 0.1 1018718
17:00−5ссв81595100 0.8 1018615
20:00−5ссв71295100 1.8 1018435
24 января, пн
пн2423:00−4ссв51096100 1.0 1017294
02:00−2всв599692 1.3 1017346
05:00−3всв599799 0.4 1019319
08:00−5всв4898100 0.5 1021227
11:00−3св5796100 0.3 1022294
14:00−3всв5996100 0.8 1022438
17:00−4св5997100 1.4 1023359
20:00−4всв4996100 2.9 1024319
25 января, вт
вт2523:00−5всв4796100 0.7 1024205
02:00−5св3697100 1.3 1023216
05:00−4всв2497100 1.0 1023162
08:00−4в1297100 1.9 1023106
11:00−2ююв2293100 0.2 1023342
14:00−1ююз2390100 0.3 1023476
17:00−2юз2496100 0.1 1023129
20:00−3юз2395100 0.2 1023106